TimeMST,TemperatureF,Dew PointF,Humidity,Sea Level PressureIn,VisibilityMPH,Wind Direction,Wind SpeedMPH,Gust SpeedMPH,PrecipitationIn,Events,Conditions,WindDirDegrees,DateUTC
12:53 AM,-2.0,-7.1,79,30.03,10.0,Calm,Calm,-,N/A,,Clear,0,2013-01-14 07:53:00
1:53 AM,-4.0,-9.0,79,30.04,10.0,Calm,Calm,-,N/A,,Clear,0,2013-01-14 08:53:00
2:53 AM,-2.9,-8.0,79,30.05,10.0,Calm,Calm,-,N/A,,Mostly Cloudy,0,2013-01-14 09:53:00
3:53 AM,-2.0,-8.0,76,30.04,10.0,Calm,Calm,-,N/A,,Overcast,0,2013-01-14 10:53:00
4:53 AM,-2.9,-8.0,79,30.06,10.0,Calm,Calm,-,N/A,,Overcast,0,2013-01-14 11:53:00
5:24 AM,-2.2,-7.6,78,29.89,4.0,Calm,Calm,-,0.00,Snow,Light Snow,0,2013-01-14 12:24:00
5:34 AM,-2.2,-7.6,78,29.89,2.5,Calm,Calm,-,0.00,Snow,Light Snow,0,2013-01-14 12:34:00
5:43 AM,-2.2,-7.6,78,29.89,5.0,Calm,Calm,-,0.00,,Mostly Cloudy,0,2013-01-14 12:43:00
5:53 AM,-4.0,-8.0,83,30.08,9.0,Calm,Calm,-,0.00,,Mostly Cloudy,0,2013-01-14 12:53:00
6:03 AM,-2.2,-7.6,78,29.89,10.0,Calm,Calm,-,N/A,,Scattered Clouds,0,2013-01-14 13:03:00
6:53 AM,-4.0,-8.0,83,30.12,10.0,Calm,Calm,-,N/A,,Clear,0,2013-01-14 13:53:00
7:53 AM,-2.0,-6.0,83,30.15,10.0,Calm,Calm,-,N/A,,Overcast,0,2013-01-14 14:53:00
8:03 AM,-2.2,-7.6,78,29.93,2.5,Calm,Calm,-,N/A,,Overcast,0,2013-01-14 15:03:00
8:08 AM,-2.2,-7.6,78,29.93,1.8,Calm,Calm,-,N/A,,Overcast,0,2013-01-14 15:08:00
8:19 AM,-2.2,-5.8,85,29.93,1.2,Calm,Calm,-,0.00,,Overcast,0,2013-01-14 15:19:00
8:26 AM,-0.4,-5.8,78,29.93,3.0,Calm,Calm,-,0.00,,Haze,0,2013-01-14 15:26:00
8:38 AM,-2.2,-5.8,85,29.93,10.0,Calm,Calm,-,0.00,,Mostly Cloudy,0,2013-01-14 15:38:00
8:53 AM,-2.0,-6.0,83,30.18,10.0,Calm,Calm,-,0.00,,Partly Cloudy,0,2013-01-14 15:53:00
9:13 AM,1.4,-4.0,78,29.94,6.0,Calm,Calm,-,N/A,,Haze,0,2013-01-14 16:13:00
9:53 AM,5.0,-2.0,73,30.13,9.0,Calm,Calm,-,N/A,,Overcast,0,2013-01-14 16:53:00
10:28 AM,8.6,1.4,73,29.94,10.0,Calm,Calm,-,N/A,,Overcast,0,2013-01-14 17:28:00
10:53 AM,10.0,3.0,73,30.11,10.0,Calm,Calm,-,N/A,,Overcast,0,2013-01-14 17:53:00
11:53 AM,15.1,6.1,68,30.07,10.0,SSW,4.6,-,N/A,,Overcast,200,2013-01-14 18:53:00
12:14 PM,14.0,5.0,67,29.90,8.0,SW,3.5,-,N/A,,Overcast,220,2013-01-14 19:14:00
12:53 PM,16.0,6.1,65,30.06,5.0,Calm,Calm,-,0.00,Snow,Light Snow,0,2013-01-14 19:53:00
1:02 PM,17.6,5.0,58,29.89,10.0,Calm,Calm,-,0.00,,Mostly Cloudy,0,2013-01-14 20:02:00
1:49 PM,15.8,8.6,73,29.89,0.8,Variable,4.6,-,0.00,Snow,Light Snow,0,2013-01-14 20:49:00
1:53 PM,16.0,9.0,74,30.08,0.8,North,4.6,-,0.00,Snow,Light Snow,360,2013-01-14 20:53:00
2:07 PM,15.8,8.6,73,29.90,1.0,NNW,5.8,-,0.00,Snow,Light Snow,330,2013-01-14 21:07:00
2:16 PM,14.0,8.6,79,29.90,0.5,NNW,4.6,-,0.00,Snow,Snow,340,2013-01-14 21:16:00
2:44 PM,15.8,10.4,79,29.92,0.2,North,3.5,-,0.03,Snow,Heavy Snow,350,2013-01-14 21:44:00
2:53 PM,15.1,10.0,80,30.10,0.8,NE,3.5,-,0.03,Snow,Light Snow,40,2013-01-14 21:53:00
2:56 PM,15.8,10.4,79,29.92,1.0,NE,3.5,-,0.00,Snow,Light Snow,40,2013-01-14 21:56:00
3:04 PM,15.8,8.6,73,29.92,3.0,Calm,Calm,-,0.00,Snow,Light Snow,0,2013-01-14 22:04:00
3:19 PM,15.8,10.4,79,29.93,0.8,North,8.1,-,0.00,Snow,Light Snow,10,2013-01-14 22:19:00
3:32 PM,14.0,8.6,79,29.94,0.2,NE,4.6,-,0.01,Snow,Heavy Snow,50,2013-01-14 22:32:00
3:39 PM,15.8,8.6,73,29.94,1.0,ENE,4.6,-,0.01,Snow,Light Snow,70,2013-01-14 22:39:00
3:45 PM,15.8,8.6,73,29.94,4.0,Variable,3.5,-,0.01,Snow,Light Snow,0,2013-01-14 22:45:00
3:53 PM,15.1,9.0,77,30.12,4.0,NNE,9.2,-,0.01,,Haze,30,2013-01-14 22:53:00
4:06 PM,14.0,8.6,79,29.95,5.0,NE,9.2,-,0.00,Snow,Light Snow,50,2013-01-14 23:06:00
4:48 PM,12.9,8.1,81,30.16,2.0,ENE,8.1,-,0.01,Snow,Light Snow,70,2013-01-14 23:48:00
4:54 PM,12.2,8.6,85,29.97,3.0,East,6.9,-,0.00,Snow,Light Snow,80,2013-01-14 23:54:00
5:53 PM,9.0,5.0,84,30.21,10.0,Variable,3.5,-,0.00,,Partly Cloudy,0,2013-01-15 00:53:00
6:53 PM,3.9,-2.0,76,30.27,10.0,Calm,Calm,-,N/A,,Scattered Clouds,0,2013-01-15 01:53:00
7:53 PM,1.0,-6.0,72,30.29,10.0,North,-9999.0,-,N/A,,Clear,0,2013-01-15 02:53:00
8:53 PM,-0.0,-6.0,76,30.30,10.0,North,8.1,-,N/A,,Clear,10,2013-01-15 03:53:00
9:53 PM,-2.0,-8.0,76,30.28,10.0,Calm,Calm,-,N/A,,Clear,0,2013-01-15 04:53:00
10:53 PM,-11.0,-15.0,83,30.32,10.0,Calm,Calm,-,N/A,,Clear,0,2013-01-15 05:53:00
11:53 PM,-11.9,-15.0,86,30.29,10.0,Calm,Calm,-,N/A,,Clear,0,2013-01-15 06:53:00